Regional Weather Roundup
Issued by NWS Newport/Morehead, NC

Current Version | Previous Version | Graphics & Text | Print | Product List | Glossary Off
Versions: 1 2 3 4 5 6 7 8 9 10 11 12 13 14 15 16 17 18 19 20 21 22 23 24 25 26 27 28 29 30 31 32 33 34 35 36 37 38 39 40 41 42 43 44 45 46 47 48 49 50

000
ASUS42 KMHX 221013
RWRMHX
WEATHER ROUNDUP FOR EASTERN NORTH CAROLINA
NATIONAL WEATHER SERVICE NEWPORT/MOREHEAD CITY NC
500 AM EST WED FEB 22 2017

NOTE: "FAIR" INDICATES FEW OR NO CLOUDS BELOW 12,000 FEET
WITH NO SIGNIFICANT WEATHER AND/OR OBSTRUCTIONS TO VISIBILITY

NCZ015>017-031-032-045>047-102-103-221100-
NORTH COAST

CITY           SKY/WX    TMP DP  RH WIND       PRES   REMARKS
EDENTON        CLEAR     51  48  89 CALM      30.06S
ELIZABETH CITY MOCLDY    49  48  97 CALM      30.06S
KITTY HAWK     NOT AVBL
MANTEO         CLEAR     46  45  97 S3        30.06F

$$

NCZ045>047-081-094-103-104-221100-
CENTRAL COAST

CITY           SKY/WX    TMP DP  RH WIND       PRES   REMARKS
FRISCO         PTCLDY    60  50  69 S7        30.06S

$$

NCZ095-097-098-100-101-221100-
SOUTHERN COAST

CITY           SKY/WX    TMP DP  RH WIND       PRES   REMARKS
BEAUFORT       PTCLDY    49  48  97 CALM      30.05S
CEDAR ISLAND   NOT AVBL
JACKSONVILLE   CLEAR     47  47 100 CALM      30.03F
PINEY ISLAND   PTSUNNY  N/A N/A N/A SE5       30.05
WILMINGTON     PTCLDY    50  50 100 E3        30.03S


$$

NCZ011>013-027>030-043-044-078>080-089-090>093-098-221100-
COASTAL PLAIN

CITY           SKY/WX    TMP DP  RH WIND       PRES   REMARKS
AHOSKIE          N/A     44  43  95 CALM      30.06S
CLINTON        CLEAR     50  50  99 CALM      30.03S
ELIZABETHTOWN  PTCLDY    51  51 100 CALM      30.01F
GOLDSBORO      CLOUDY    46  46 100 CALM      30.02S FOG
GREENVILLE     PTCLDY    45  45 100 CALM      30.06S
HAVELOCK       FOG       47  45  93 CALM      30.06S VSB 1/2
KENANSVILLE    NOT AVBL
KINSTON        NOT AVBL
NEW BERN       FOG       47  47 100 CALM      30.06S VSB 1/2
RICHLANDS      FOG       45  45 100 NE5       30.04F VSB 1
ROCKY MOUNT    CLOUDY    47  46  97 CALM      30.05S
WASHINGTON     CLOUDY    46  45  96 SE5       30.05F
WHITEVILLE     PTCLDY    54  51  92 NE3       30.01S

$$

AMZ130-135-150-152-154-156-158-170-250-252-270-ANZ085-086-088-633-658-670-221100-
MARINE OBSERVATIONS

STATION/POSITION TIME  TEMP    WIND        PRES    WAVE   SWELL
                       AIR SEA DIR/SP/G            HT/PER HT/PER
                 (UTC) (F)     (DEG/KT/KT) (MB)    (FT/S) (FT/S)
CHESAPEAKE LIGHT NOT AVBL
64 E VA BEACH    0950   55 53  190/  6/  8 1017.7    4/ 9   3/ 9
DUCK             0936   49 48  150/  5/  6 1017.5
2 E DUCK         1000      49                N/A     4/ 9   2/11
OREGON INLET     0936   52 51  120/  3/  4 1018.0
13E OREGON INLT  NOT AVBL
HATTERAS CG      0936   61 58  150/  5/  6 1017.5
DIAMOND BUOY     0950   64 74  180/  6/  8 1018.2    4/ 9   3/ 9
CAPE LOOKOUT     1000   60     120/  3/  3 1017.2
BEAUFORT LAB     0936   55 53  110/  1/  2 1016.5
30 SE NEW RVR IN 0908   66     130/ 10/ 14 1017.1
30 SE NEW RVR IN 0943      69                N/A     3/ 6
27 SE WRIGHTSVLE 0908   66 64  120/ 10/ 14 1015.8
5 SE WRIGHTSVLE  0908   58 56   80/  6/ 10 1016.5
225 S CAPE HAT   0950   64 71  100/ 12/ 16 1017.1    5/ 8   3/ 8
41 SE CHARLESTON 0950   69 69  120/ 17/ 19 1013.9    4/ 6   2/ 9

$$




USA.gov is the U.S. government's official web portal to all federal, state and local government web resources and services.